Meteo orario Kozin

Oggi, 5 Marzo, Venerdi

Tempo Temperatura Precipitazioni Vento Pressione Umidità
00:00 -2°C° 0 mm 3 m/s 750 mm Hg 80%
01:00 -4°C° 0 mm 3 m/s 750 mm Hg 82%
02:00 -4°C° 0 mm 3 m/s 750 mm Hg 82%
03:00 -4°C° 0 mm 3 m/s 750 mm Hg 83%
04:00 -4°C° 0 mm 3 m/s 751 mm Hg 84%
05:00 -4°C° 0 mm 3 m/s 751 mm Hg 80%
06:00 -4°C° 0 mm 3 m/s 751 mm Hg 77%
07:00 -4°C° 0 mm 3 m/s 752 mm Hg 74%
08:00 -2°C° 0 mm 3 m/s 752 mm Hg 66%
09:00 -1°C° 0 mm 3 m/s 753 mm Hg 58%
10:00 +1°C° 0 mm 3 m/s 753 mm Hg 51%
11:00 +1°C° 0.1 mm 3 m/s 753 mm Hg 50%
12:00 +1°C° 0.1 mm 3 m/s 753 mm Hg 49%
13:00 +2°C° 0 mm 3 m/s 754 mm Hg 46%
14:00 +2°C° 0.2 mm 3 m/s 754 mm Hg 46%
15:00 +2°C° 0.2 mm 3 m/s 754 mm Hg 46%
16:00 +1°C° 0.2 mm 3 m/s 754 mm Hg 47%
17:00 0°C° 0 mm 3 m/s 755 mm Hg 51%
18:00 -1°C° 0 mm 3 m/s 755 mm Hg 55%
19:00 -2°C° 0 mm 2 m/s 756 mm Hg 60%
20:00 -2°C° 0 mm 3 m/s 756 mm Hg 63%
21:00 -2°C° 0 mm 3 m/s 756 mm Hg 66%
22:00 -4°C° 0 mm 3 m/s 757 mm Hg 70%
23:00 -4°C° 0 mm 3 m/s 757 mm Hg 72%

Domani, 6 Marzo, Sabato

Tempo Temperatura Precipitazioni Vento Pressione Umidità
00:00 -4°C° 0 mm 4 m/s 758 mm Hg 75%
01:00 -4°C° 0 mm 4 m/s 758 mm Hg 77%
02:00 -4°C° 0 mm 4 m/s 758 mm Hg 77%
03:00 -4°C° 0 mm 4 m/s 758 mm Hg 77%
04:00 -4°C° 0 mm 4 m/s 758 mm Hg 76%
05:00 -4°C° 0 mm 4 m/s 758 mm Hg 76%
06:00 -4°C° 0 mm 3 m/s 759 mm Hg 75%
07:00 -4°C° 0 mm 3 m/s 759 mm Hg 74%
08:00 -2°C° 0 mm 3 m/s 759 mm Hg 66%
09:00 -1°C° 0 mm 3 m/s 759 mm Hg 57%
10:00 +1°C° 0 mm 3 m/s 760 mm Hg 48%
11:00 0°C° 0 mm 4 m/s 759 mm Hg 47%
12:00 +1°C° 0 mm 4 m/s 759 mm Hg 46%
13:00 +1°C° 0 mm 5 m/s 759 mm Hg 44%
14:00 +1°C° 0 mm 5 m/s 758 mm Hg 46%
15:00 +1°C° 0 mm 5 m/s 758 mm Hg 47%
16:00 +1°C° 0 mm 5 m/s 757 mm Hg 49%
17:00 0°C° 0 mm 5 m/s 757 mm Hg 53%
18:00 -1°C° 0 mm 5 m/s 756 mm Hg 57%
19:00 -2°C° 0 mm 5 m/s 756 mm Hg 61%
20:00 -3°C° 0 mm 6 m/s 755 mm Hg 65%
21:00 -3°C° 0 mm 6 m/s 755 mm Hg 69%
22:00 -3°C° 0 mm 7 m/s 754 mm Hg 73%
23:00 -3°C° 0 mm 7 m/s 754 mm Hg 76%

Dopodomani, 7 Marzo, Domenica

Tempo Temperatura Precipitazioni Vento Pressione Umidità
00:00 -2°C° 0 mm 8 m/s 753 mm Hg 80%
01:00 -2°C° 0 mm 8 m/s 753 mm Hg 83%
02:00 -3°C° 0 mm 9 m/s 752 mm Hg 82%
03:00 -4°C° 0 mm 9 m/s 751 mm Hg 81%
04:00 -4°C° 0 mm 9 m/s 751 mm Hg 80%
05:00 -4°C° 0 mm 10 m/s 751 mm Hg 82%
06:00 -4°C° 0 mm 10 m/s 750 mm Hg 83%
07:00 -4°C° 0 mm 10 m/s 750 mm Hg 84%
08:00 -3°C° 0 mm 10 m/s 750 mm Hg 84%
09:00 -3°C° 0 mm 9 m/s 750 mm Hg 84%
10:00 -3°C° 0 mm 9 m/s 750 mm Hg 84%
11:00 -3°C° 0.1 mm 10 m/s 750 mm Hg 82%
12:00 -2°C° 0.1 mm 10 m/s 750 mm Hg 80%
13:00 -2°C° 0.1 mm 10 m/s 750 mm Hg 78%
14:00 -2°C° 0.1 mm 10 m/s 749 mm Hg 79%
15:00 -1°C° 0.1 mm 9 m/s 749 mm Hg 81%
16:00 -1°C° 0.1 mm 9 m/s 749 mm Hg 82%
17:00 -2°C° 0.6 mm 7 m/s 749 mm Hg 84%
18:00 -3°C° 0.6 mm 6 m/s 749 mm Hg 87%
19:00 -3°C° 0.6 mm 4 m/s 749 mm Hg 89%
20:00 -2°C° 0.1 mm 3 m/s 750 mm Hg 86%
21:00 -2°C° 0.1 mm 3 m/s 750 mm Hg 84%
22:00 -4°C° 0.1 mm 3 m/s 750 mm Hg 82%
23:00 -4°C° 0 mm 3 m/s 750 mm Hg 83%

8 Marzo, Lunedi

Tempo Temperatura Precipitazioni Vento Pressione Umidità
00:00 -5°C° 0 mm 3 m/s 750 mm Hg 84%
01:00 -5°C° 0 mm 3 m/s 750 mm Hg 86%
02:00 -5°C° 0 mm 3 m/s 750 mm Hg 86%
03:00 -6°C° 0 mm 3 m/s 750 mm Hg 87%
04:00 -6°C° 0 mm 3 m/s 750 mm Hg 88%
05:00 -5°C° 0 mm 3 m/s 750 mm Hg 86%
06:00 -5°C° 0 mm 3 m/s 751 mm Hg 84%
07:00 -5°C° 0 mm 3 m/s 751 mm Hg 82%
08:00 -4°C° 0 mm 4 m/s 751 mm Hg 77%
09:00 -3°C° 0 mm 4 m/s 751 mm Hg 72%
10:00 -1°C° 0 mm 5 m/s 752 mm Hg 66%
11:00 -1°C° 0.1 mm 5 m/s 752 mm Hg 63%
12:00 -1°C° 0.1 mm 5 m/s 752 mm Hg 60%
13:00 -1°C° 0.1 mm 6 m/s 752 mm Hg 56%
14:00 -2°C° 0 mm 6 m/s 753 mm Hg 58%
15:00 -2°C° 0 mm 6 m/s 753 mm Hg 59%
16:00 -2°C° 0 mm 6 m/s 753 mm Hg 61%
17:00 -4°C° 0 mm 5 m/s 753 mm Hg 67%
18:00 -4°C° 0 mm 4 m/s 754 mm Hg 73%
19:00 -5°C° 0 mm 3 m/s 754 mm Hg 79%
20:00 -5°C° 0 mm 3 m/s 755 mm Hg 81%
21:00 -5°C° 0 mm 2 m/s 755 mm Hg 83%
22:00 -5°C° 0 mm 2 m/s 755 mm Hg 84%
23:00 -5°C° 0 mm 2 m/s 756 mm Hg 84%

9 Marzo, Martedi

Tempo Temperatura Precipitazioni Vento Pressione Umidità
00:00 -5°C° 0 mm 2 m/s 756 mm Hg 84%
01:00 -3°C° 0 mm 1 m/s 756 mm Hg 84%
02:00 -3°C° 0 mm 1 m/s 756 mm Hg 83%
03:00 -3°C° 0 mm 1 m/s 756 mm Hg 82%
04:00 -3°C° 0 mm 1 m/s 756 mm Hg 81%
05:00 -3°C° 0 mm 1 m/s 756 mm Hg 79%
06:00 -3°C° 0 mm 1 m/s 756 mm Hg 77%
07:00 -3°C° 0 mm 1 m/s 757 mm Hg 75%
08:00 -2°C° 0 mm 1 m/s 757 mm Hg 68%
09:00 -3°C° 0 mm 2 m/s 757 mm Hg 62%
10:00 -2°C° 0 mm 2 m/s 757 mm Hg 55%
11:00 -2°C° 0 mm 2 m/s 757 mm Hg 52%
12:00 -1°C° 0 mm 2 m/s 757 mm Hg 48%
13:00 0°C° 0 mm 3 m/s 757 mm Hg 44%
14:00 0°C° 0 mm 3 m/s 756 mm Hg 45%
15:00 0°C° 0 mm 3 m/s 756 mm Hg 46%
16:00 0°C° 0 mm 3 m/s 755 mm Hg 46%
17:00 -1°C° 0 mm 3 m/s 755 mm Hg 51%
18:00 -2°C° 0 mm 2 m/s 755 mm Hg 56%
19:00 -3°C° 0 mm 2 m/s 755 mm Hg 60%
20:00 -4°C° 0 mm 3 m/s 755 mm Hg 61%
21:00 -4°C° 0 mm 3 m/s 755 mm Hg 62%
22:00 -4°C° 0 mm 3 m/s 755 mm Hg 63%
23:00 -4°C° 0 mm 4 m/s 755 mm Hg 63%

10 Marzo, Mercoledi

Tempo Temperatura Precipitazioni Vento Pressione Umidità
00:00 -4°C° 0 mm 4 m/s 754 mm Hg 64%
01:00 -4°C° 0 mm 4 m/s 754 mm Hg 65%
02:00 -4°C° 0 mm 4 m/s 753 mm Hg 67%
03:00 -4°C° 0 mm 4 m/s 753 mm Hg 68%
04:00 -3°C° 0 mm 4 m/s 752 mm Hg 70%
05:00 -3°C° 0 mm 4 m/s 752 mm Hg 78%
06:00 -3°C° 0 mm 4 m/s 752 mm Hg 86%
07:00 -2°C° 0 mm 4 m/s 752 mm Hg 94%
08:00 -2°C° 0.1 mm 5 m/s 751 mm Hg 94%
09:00 -1°C° 0.1 mm 5 m/s 751 mm Hg 94%
10:00 0°C° 0.1 mm 5 m/s 751 mm Hg 95%
11:00 0°C° 0 mm 5 m/s 751 mm Hg 92%
12:00 0°C° 0 mm 5 m/s 750 mm Hg 89%
13:00 +1°C° 0 mm 6 m/s 750 mm Hg 86%
14:00 +1°C° 0 mm 5 m/s 749 mm Hg 84%
15:00 +1°C° 0 mm 5 m/s 748 mm Hg 83%
16:00 +3°C° 0 mm 4 m/s 748 mm Hg 81%
17:00 +1°C° 0 mm 4 m/s 747 mm Hg 81%
18:00 +1°C° 0 mm 5 m/s 747 mm Hg 81%
19:00 +1°C° 0 mm 5 m/s 746 mm Hg 80%
20:00 +1°C° 0 mm 6 m/s 745 mm Hg 81%
21:00 +1°C° 0 mm 6 m/s 745 mm Hg 81%
22:00 +1°C° 0 mm 6 m/s 744 mm Hg 82%
23:00 0°C° 0.1 mm 7 m/s 743 mm Hg 86%
Mostrare altro